Regional Weather Roundup
Issued by NWS Cleveland, OH

Home | Current Version | Previous Version | Graphics & Text | Print | Product List | Glossary On
Versions: 1 2 3 4 5 6 7 8 9 10 11 12 13 14 15 16 17 18 19 20 21 22 23 24 25 26 27 28 29 30 31 32 33 34 35 36 37 38 39 40 41 42 43 44 45 46 47 48 49 50
000
ASUS41 KCLE 280910
RWRCLE
OHIO REGIONAL WEATHER ROUNDUP
NATIONAL WEATHER SERVICE CLEVELAND, OH
500 AM EDT SUN AUG 28 2016

NOTE: "FAIR" INDICATES FEW OR NO CLOUDS BELOW 12,000 FEET WITH NO
SIGNIFICANT WEATHER AND/OR OBSTRUCTIONS TO VISIBILITY.

OHZ001>008-015>018-024>027-034-035-043-044-281000-
   NORTHWEST OHIO

CITY           SKY/WX    TMP DP  RH WIND       PRES   REMARKS
DEFIANCE       CLEAR     70  68  93 CALM      30.15R FOG
FINDLAY        PTCLDY    68  65  90 SW3       30.15S
TOLEDO EXPRESS CLOUDY    68  68 100 CALM      30.15S FOG
TOLEDO EXEC    CLEAR     69  68  96 S3        30.16R FOG
LIMA           CLEAR     67  67 100 CALM      30.17R
$$

OHZ009>014-019>023-028>033-038-089-281000-
   NORTHEAST OHIO

CITY           SKY/WX    TMP DP  RH WIND       PRES   REMARKS
CLE-HOPKINS    MOCLDY    71  66  84 W3        30.18R
CLE-LAKEFRONT  PTCLDY    72  68  87 SW6       30.14R
CUY CO. ARPT   NOT AVBL
LORAIN-ELYRIA  PTCLDY    66  64  93 CALM      30.17R
ASHTABULA      PTCLDY    67  67 100 CALM      30.17R
AKRON-CANTON   MOCLDY    71  66  84 CALM      30.17R
WOOSTER          N/A     67  67 100 CALM      30.17S
MANSFIELD      PTCLDY    71  68  90 W5        30.18R
YOUNGSTOWN     CLOUDY    72  66  81 CALM      30.17R
$$

OHZ042-051>053-060>062-070>072-077>081-281000-
  SOUTHWEST OHIO

CITY           SKY/WX    TMP DP  RH WIND       PRES   REMARKS
CINC-COVINGTON MOCLDY    70  70 100 SE3       30.15S
CINC-LUNKEN    PTCLDY    70  70 100 CALM      30.15S
HAMILTON       CLEAR     68  66  93 CALM      30.15R
DAYTON         PTCLDY    70  68  93 CALM      30.17R
WRIGHT-PAT AFB CLEAR     70  70 100 E1        30.16R
DAYTON GENERAL CLEAR     71  67  87 CALM      30.16R
WILMINGTON     CLEAR     66  66 100 CALM      30.16S
$$

OHZ036-037-039>041-045>050-054>059-063>069-073>076-082>088-281000-
  CENTRAL AND SOUTHEAST OHIO

CITY           SKY/WX    TMP DP  RH WIND       PRES   REMARKS
COLUMBUS       MOCLDY    68  67  96 N3        30.15R
OSU AIRPORT    PTCLDY    69  69 100 CALM      30.16R FOG
BOLTON FIELD   PTCLDY    66  66 100 CALM      30.16S
RICKENBACK AFB PTCLDY    69  68  98 CALM      30.15S
NEWARK         PTCLDY    66  65  96 CALM      30.15S
MARION         PTCLDY    69  67  93 CALM      30.17R
LANCASTER      CLEAR     67  66  97 CALM      30.16R FOG
ZANESVILLE     PTCLDY    68  67  96 CALM      30.16R
NEW PHILLY     PTCLDY    70  67  90 CALM      30.16S
$$



USA.gov is the U.S. government's official web portal to all federal, state and local government web resources and services.